Location: Bradley
(41.1420°N, 87.8610°W)
Time: 06:43:22
(UTC-06:00)

Hubble Space Telescope - Visible Passes

Search period start: 16 December 2018 00:00
Search period end: 26 December 2018 00:00
Orbit: 537 x 540 km, 28.5° (Epoch: 16 December)

Date Brightness Start Highest point End Pass type
(mag) Time Alt. Az. Time Alt. Az. Time Alt. Az.
23 Dec 3.6 19:13:02 10° SSW 19:13:21 11° SSW 19:13:21 11° SSW visible
24 Dec 3.4 19:02:24 10° SSW 19:03:33 13° SSW 19:03:33 13° SSW visible
25 Dec 3.4 17:12:26 10° S 17:13:37 11° SSE 17:14:48 10° SSE visible
25 Dec 3.2 18:51:52 10° SSW 18:53:46 14° S 18:53:46 14° S visible
